Content
SEND FEEDBACK

Daily
Averages
Monthly
Summary
Mexico

PUEBLA - JARDINES DE SAN MANUEL, PUEBLA


Home > North America > Mexico > Puebla
Elevation: 2122 meters     Latitude: 19 00N     Longitude: 098 11W

WEATHER
 
SELECT A DAY
Number of Records: 120,875;   Date Range: 1/1/95 - 7/23/14
 
SHARE

PRINT THIS DATA

[ ← Previous Day ]
WEATHER ALMANAC - 19 FEBRUARY, 2013
[ Next Day → ]
[ °F ]   °C
Weather ElementAverageHighLow
Temperature16.1 °C27.2 °C (2:50 pm) (4:45 pm)
Dewpoint-3 °C2 °C (7:41 am) (7:00 pm)
Humidity27 %76 % (6:45 am)9 % (2:50 pm)
Barometer979.7 hPa1029.5 hPa (9:42 am) (7:00 pm)
Wind Speed10.5 km/h29.6 km/h (6:41 pm)
Wind Gust24.1 km/h (12:40 pm)
Weather ElementAverage
Visibility13.4 km
Wind DirectionSSE (151.3 °)

Weather ElementTotal
Precipitation---
Heating Degree Days13.6 (Base 18.3)
Averaged from 24 records on 19 February, 2013
WEATHER CONDITIONS BREAKOUT
WIND DIRECTION BREAKOUT
WEATHER BY HOUR - 19 FEBRUARY, 2013
[ °F ]   °C
Local TimeTemperatureDewpointHumidityBarometerVisibilityWind DirectionWind SpeedGust SpeedPrecipitationEventsConditions
5:58 AM8.9 °C-1.7 °C35 %1011.9 hPa4.8 kmENE (60°)3.5 km/hPartly Cloudy
6:45 AM5 °C1 °C76 %1027.4 hPa12.9 kmNorth (350°)11.1 km/hClear
7:41 AM8 °C2 °C66 %1028.1 hPa16.1 kmNNW (340°)9.3 km/hClear
8:48 AM13 °C2 °C47 %1028.8 hPa16.1 kmNorth (360°)11.1 km/hClear
8:50 AM15 °C1.1 °C27 %1016.6 hPa4.8 kmNNE (30°)3.5 km/hHaze
9:42 AM17 °C0 °C32 %1029.5 hPa16.1 kmEast (90°)5.6 km/hClear
10:41 AM21 °C-2 °C21 %1029.1 hPa16.1 kmSSE (160°)11.1 km/hClear
11:41 AM23 °C-2 °C19 %1028.1 hPa16.1 kmCalmClear
11:50 AM23.3 °C1.1 °C13 %1014.9 hPa4.8 kmSW (230°)7.2 km/hHaze
12:40 PM4 °C-3 °C61 %1027.1 hPa16.1 kmSE (130°)5.6 km/h24.1 km/hClear
1:43 PM24 °C-5 °C14 %1025.7 hPa16.1 kmWNW (290°)5.6 km/hClear
2:43 PM25 °C-5 °C13 %1024.7 hPa16.1 kmSE (140°)14.8 km/hClear
2:50 PM27.2 °C0.6 °C9 %1008.1 hPa14.5 kmESE (120°)21.6 km/hHaze
3:44 PM25 °C-6 °C12 %1024 hPa16.1 kmSSE (150°)7.4 km/hScattered Clouds
4:45 PM-17.8 °C-17.8 °CNorth
4:53 PM24 °C-1 °C19 %1023.7 hPa16.1 kmSouth (180°)20.4 km/hScattered Clouds
4:55 PM25 °C-1 °C18 %1023.7 hPa16.1 kmSouth (180°)20.4 km/hScattered Clouds
6:41 PM20 °C-4 °C20 %1024.4 hPa12.9 kmSE (140°)29.6 km/hScattered Clouds
7:48 PM17 °C-5 °C22 %1025.4 hPa16.1 kmESE (120°)22.2 km/hScattered Clouds
8:48 PM16 °C-5 °C23 %1026.8 hPa16.1 kmSSW (210°)13 km/hClear
8:58 PM18.3 °C-4.4 °C11 %1003.4 hPa4.8 kmENE (60°)3.5 km/h
9:44 PM15 °C-6 °C23 %1026.8 hPa16.1 kmCalmClear
10:46 PM14 °C-7 °C23 %1027.1 hPa16.1 kmSW (230°)9.3 km/hClear
11:59 PM14.4 °C-3.9 °C16 %1007.1 hPa4.8 kmENE (60°)3.5 km/h
Hourly data recorded from MMPB, located 0 kilometers away from Puebla - Jardines de San Manuel, Puebla







STORIES FROM OUR PARTNERS